Uploader - adam014

Uploader to miejsce na przechowywanie plików Twojej twórczości, którymi chcesz podzielić się na GMCLANie.

Zajęte: 70.01 MB (70%)
Najnowsze pliki graficzne w tym folderze (max. 12):
Plik Pobrań Rozmiar Data uploadu
Adobe_Certified_Professional_Exp.png Podgląd 318 9.43 KB 06.11.2021 18:15:44
Adobe_Certified_Expert_Experienc.png Podgląd 330 7.91 KB 06.11.2021 18:15:32
Zrzut_ekranu_2020_03_6_o_17_57_1.png Podgląd 313 588.47 KB 06.03.2020 17:59:57
n.gif Podgląd 411 1.11 MB 30.12.2017 09:36:08
a.gif Podgląd 429 66.79 KB 29.12.2017 13:07:38
bieeda.png Podgląd 371 95.51 KB 10.07.2017 19:10:03
teren22.gif Podgląd 442 677.90 KB 09.07.2017 14:13:00
teren2.gif Podgląd 339 94.31 KB 01.07.2017 17:52:14
teren.gif Podgląd 392 491.41 KB 02.06.2017 15:57:09
KnockOutLITE_YXY.zip 302 4.40 MB 22.04.2015 21:33:26
HELL_YXY2015.zip 326 9.29 MB 22.04.2015 20:56:47
scr1.jpg Podgląd 402 202.02 KB 22.04.2015 20:46:36
Untitled_1.jpg Podgląd 446 96.38 KB 05.04.2015 20:11:06
Inverted_YXY2015_adam014.rar 298 3.24 MB 01.03.2015 17:05:02
screen2.jpg Podgląd 392 199.91 KB 01.03.2015 16:58:56
screen1.jpg Podgląd 400 117.02 KB 01.03.2015 16:58:44
kinetic.jpg Podgląd 390 224.50 KB 25.08.2014 16:09:53
gmc_avatar.png Podgląd 443 15.21 KB 16.05.2014 18:57:38
sygnab53e5.png Podgląd 382 126.22 KB 14.05.2014 21:56:21
arenaa333.jpg Podgląd 353 1.27 MB 01.04.2014 12:22:38
new_logo2.png Podgląd 437 5.40 KB 01.04.2014 12:22:38
Obrazek_1.png Podgląd 337 922.38 KB 01.04.2014 12:22:38
pauzapl.jpg Podgląd 375 42.48 KB 01.04.2014 12:22:37
ucieczka.rar 300 1.20 MB 01.04.2014 12:22:37
gadzet.jpg Podgląd 362 124.54 KB 01.04.2014 12:22:35
knockout2.jpg Podgląd 395 148.64 KB 01.04.2014 12:22:35
knockout1.jpg Podgląd 392 177.71 KB 01.04.2014 12:22:35
haye.png Podgląd 394 37.95 KB 01.04.2014 12:22:34
nanowarelogo.png Podgląd 288 23.73 KB 01.04.2014 12:22:34
mordeczki.png Podgląd 321 44.64 KB 01.04.2014 12:22:34
edytor.jpg Podgląd 328 188.79 KB 01.04.2014 12:22:34
quick_battle.jpg Podgląd 393 84.10 KB 01.04.2014 12:22:33
shil_boxing.png Podgląd 389 54.85 KB 01.04.2014 12:22:33
kliczko_test.gif Podgląd 308 123.62 KB 01.04.2014 12:22:33
kliczko.png Podgląd 318 90.98 KB 01.04.2014 12:22:33
ytplay.png Podgląd 345 41.43 KB 01.04.2014 12:22:32
logo.jpg Podgląd 370 39.58 KB 01.04.2014 12:22:32
logo_2012.png Podgląd 320 8.81 KB 01.04.2014 12:22:32
szubienica2012_test.jpg Podgląd 390 90.93 KB 01.04.2014 12:22:32
gadget.jpg Podgląd 371 12.75 KB 01.04.2014 12:22:32
pulpit2.png Podgląd 353 151.61 KB 01.04.2014 12:22:32
scrolled_text.gm81 325 3.37 KB 01.04.2014 12:22:32
konew.jpg Podgląd 429 118.81 KB 01.04.2014 12:22:32
pulpit1.png Podgląd 376 250.09 KB 01.04.2014 12:22:32
sygna.jpg Podgląd 356 11.17 KB 01.04.2014 12:22:31
fotelszefa.jpg Podgląd 298 63.20 KB 01.04.2014 12:22:31
dev_screen3.png Podgląd 438 307.55 KB 01.04.2014 12:22:31
2.jpg Podgląd 386 77.66 KB 01.04.2014 12:22:31
gra_html5.rar 288 128.97 KB 01.04.2014 12:22:31
1.jpg Podgląd 367 66.90 KB 01.04.2014 12:22:31
lights.jpg Podgląd 357 54.84 KB 01.04.2014 12:22:31
ko_devscreen1.jpg Podgląd 423 76.93 KB 01.04.2014 12:22:31
splash.jpg Podgląd 365 48.43 KB 01.04.2014 12:22:31
ceg_y.rar 309 1.04 MB 01.04.2014 12:22:30
pulpet1.jpg Podgląd 318 168.54 KB 01.04.2014 12:22:30
okladki.rar 300 3.78 MB 01.04.2014 12:22:30
zrzutekranu.png Podgląd 314 1.70 MB 01.04.2014 12:22:27
lol.png Podgląd 373 127.99 KB 01.04.2014 12:22:26
xscorch02_beta1.rar 315 7.05 MB 01.04.2014 12:22:26
myfile.gif Podgląd 360 277.14 KB 01.04.2014 12:22:23
ots3D.rar 286 1.76 MB 01.04.2014 12:22:22
market_example.gm6 290 11.51 KB 01.04.2014 12:22:21
x.rar 314 1.25 MB 01.04.2014 12:22:21
scr1.png Podgląd 332 3.39 KB 01.04.2014 12:22:20
pl_sic.png Podgląd 376 1.30 KB 01.04.2014 12:22:20
x_pas.rar 330 1.03 MB 01.04.2014 12:22:20
smoke.gm6 332 4.38 KB 01.04.2014 12:22:20
menu.png Podgląd 317 324.44 KB 01.04.2014 12:22:20
zrecznosciowkaengine2.gm6 290 7.90 KB 01.04.2014 12:22:20
licznik.rar 289 2.17 KB 01.04.2014 12:22:20
zrecznosciowkaengine.gm6 298 7.67 KB 01.04.2014 12:22:19
screen1.png Podgląd 374 550.61 KB 01.04.2014 12:22:19
scr_menu.png Podgląd 313 596.57 KB 01.04.2014 12:22:19
madman_demo_v0_2.rar 301 1.29 MB 01.04.2014 12:22:18
uploader.png Podgląd 319 27.97 KB 01.04.2014 12:22:17
pleag_scr1.png Podgląd 330 16.60 KB 01.04.2014 12:22:17
screen2.png Podgląd 332 686.03 KB 01.04.2014 12:22:17
logo_c.png Podgląd 331 418.23 KB 01.04.2014 12:22:17
halflife.gm6 326 5.80 KB 01.04.2014 12:22:17
robaki_nowe.rar 300 1.29 MB 01.04.2014 12:22:16
almora.png Podgląd 413 1.86 MB 01.04.2014 12:22:15
pl2_screen2.png Podgląd 302 2.42 KB 01.04.2014 12:22:15
odswierzacz.rar 281 947.97 KB 01.04.2014 12:22:14
onthespeedv5.rar 296 5.03 MB 01.04.2014 12:22:14
hak.rar 284 966.16 KB 01.04.2014 12:22:10
xrp.zip 284 708.72 KB 01.04.2014 12:22:10
przezroczystosc.gm6 299 51.64 KB 01.04.2014 12:22:09
loading.gif Podgląd 308 2.74 KB 01.04.2014 12:22:09
madman2_update1.rar 283 930.62 KB 01.04.2014 12:22:09
health.rar 293 1.64 KB 01.04.2014 12:22:09
pleag_ub.png Podgląd 390 15.15 KB 01.04.2014 12:22:09
hockey.rar 283 1.06 MB 01.04.2014 12:22:08
odsw_03_beta.rar 312 903.61 KB 01.04.2014 12:22:07
MadMan2_full1_1.rar 278 941.45 KB 01.04.2014 12:22:06
zrzut_ekranu1.png Podgląd 332 672.26 KB 01.04.2014 12:22:06
tuba.png Podgląd 333 33.02 KB 01.04.2014 12:22:05
sygna_binary.png Podgląd 397 43.21 KB 01.04.2014 12:22:05
teren.gm6 293 8.90 KB 01.04.2014 12:22:05
sig.png Podgląd 363 83.94 KB 01.04.2014 12:22:05
inventory.png Podgląd 327 156.63 KB 01.04.2014 12:22:05
scr2.png Podgląd 371 31.92 KB 01.04.2014 12:22:05
original.png Podgląd 379 1.92 KB 01.04.2014 12:22:05
xscorch.rar 300 1.10 MB 01.04.2014 12:22:04
zegar.gm6 309 5.18 KB 01.04.2014 12:22:04
sygna.png Podgląd 404 53.94 KB 01.04.2014 12:22:04
pl2_screen1.png Podgląd 363 2.72 KB 01.04.2014 12:22:04
mon.png Podgląd 325 3.47 KB 01.04.2014 12:22:04
samochod.gm6 295 7.32 KB 01.04.2014 12:22:04
bounceeffect.gm6 283 7.50 KB 01.04.2014 12:22:03
clown_down.rar 306 0.96 MB 01.04.2014 12:22:03
patch_17_1.txt 316 73.00 B 01.04.2014 12:22:03
Pulpit311.png Podgląd 416 201.37 KB 01.04.2014 12:22:03
cd.rar 300 966.09 KB 01.04.2014 12:22:02
version.txt 273 88.00 B 01.04.2014 12:22:02
pleag_scr2.png Podgląd 288 10.47 KB 01.04.2014 12:22:02
obracanie.gm6 268 5.71 KB 01.04.2014 12:22:02
pl2_screen3.png Podgląd 358 3.79 KB 01.04.2014 12:22:01
71f52816d1.gm6 299 8.89 KB 01.04.2014 12:22:00
szablon.png Podgląd 360 149.00 B 01.04.2014 12:22:00
no_name.rar 335 1.03 MB 01.04.2014 12:22:00
sloty.gm6 275 5.30 KB 01.04.2014 12:22:00
optymalizacja.rar 277 2.48 KB 01.04.2014 12:22:00
gmc.jpg Podgląd 317 11.56 KB 01.04.2014 12:21:59
przyklad_rozdzielczosc.gm6 269 5.91 KB 01.04.2014 12:21:59
patrzenie.gm6 283 4.98 KB 01.04.2014 12:21:59
hakv2.rar 285 963.29 KB 01.04.2014 12:21:58
parkour2.png Podgląd 348 1.39 KB 01.04.2014 12:21:57
pleag_0_38b.rar 299 40.95 KB 01.04.2014 12:21:57
kolor.gm6 304 6.85 KB 01.04.2014 12:21:57
70 MB / 100MB

Najnowsze wersje GameMakera:

LTS
2026.0.0.16 • 2022.0.3.99
wydana 98 dni temu
Beta
2026.100.0.1142 •
2026.100.0.1093
 GMRT beta 0.21.0

wydana  wczoraj
= IDE, = Runtime, = GMRT
Użytkownicy online
1 użytkownik aktywny:
gości: 1,
(~ostatnie 15 minut)
Discord
47 użytkowników online na discordzie:
szynka, Miłosz, 🧁Cupcake🧁, Alice, LeD, Nitro Slav, Carl-bot, Fox, GibkiKaktus, Cosplyfanka, Kuzyn, GMRussell, Tidżi, 𝕳𝖚𝖌𝖔 𝕲𝖔𝖓𝖝𝖆𝖑𝖊𝖝, 𝕯𝖎𝖆𝖓𝖆, PhysX ᴺⱽᴵᴰᴵᴬ, Skini, Moldis, LolikZabijaka, Murrri, Sporek, Kandif, Jarkozpl, HappyOrange, Dyno, 🆅🅸🆃🅾74🅼, Deusald, szmalu, Korodzik, sgames, Morro, Marco, p..., OdrzuconyKrakers, Danieo, bagno, Arrekin, Mtax, MrTesterr, g..., Voytec, GreenClover, Morti, l..., Cebul, h..., Shockah
Shoutbox
Wojo (16:25, 03.09.26)
Pytanie tylko co z tym faktem możemy zrobić my jako użytkownicy? - przede wszystkim udzielać się więcej. Ja ogólnie lubię dużo mówić, dużo pisać, mało robić, ale poza mną obecnie jest może kilku użytkowników, którzy coś tutaj wkleją raz na ruski rok.
Wojo (09:25, 03.09.26)
Fora internetowe wyhamowały już dawno temu, ale teraz to nawet zaciągnęły ręczny. Przecież nic się na nich nie dzieje na ten moment. Trzeba czekać, aż może aktywność wróci
gnysek (01:00, 22.08.26)
Będzie wkrótce spory plugin do GM z kilkunastoma QoL, trwają prace ;)
Wojo (11:35, 13.08.26)
Gratuluję i dziękuję w imieniu aktywnych użytkowników GMClanu!
gnysek (23:13, 12.08.26)
Szybkie info, że GMCLAN chodzi obecnie na cloudflare więc wyciąłem boty :)
Wojo (21:21, 28.06.26)
na ten moment czerwiec prezentuje się dość przyzwoicie jesli chodzi o ilosc wpisow w shoutboxie bo aż trzy! a taki styczeń zero :0
gnysek (15:06, 10.06.26)
oraz pokój na świecie
Kuzyn (17:16, 08.06.26)
i urlop
gnysek (11:13, 05.05.26)
czekamy na GMRT
Starsze wpisy znajdziesz w Archiwum.
Ankieta
Ile zarobiłeś do tej pory na grach stworzonych w GM?